Location: Waco, TX
(31.5480°N, 97.1670°W)
Time: 01:17:59
(UTC-06:00)

ISS - Pass Details

Date: 27 January 2021
Orbit: 417 x 422 km, 51.6° (Epoch: 09 March)

Event Time Altitude Azimuth Distance (km) Brightness Sun altitude
Rises 00:26:53 0° 294° (WNW) 2,368 - -76.4°
Reaches altitude 10° 00:29:43 10° 268° (W) 1,499 - -76.6°
Maximum altitude 00:31:35 14° 234° (SW) 1,269 - -76.6°
Drops below altitude 10° 00:33:26 10° 200° (SSW) 1,493 - -76.7°
Sets 00:36:15 0° 174° (S) 2,351 - -76.8°
